User: anonymous   Login
Location: Unspecified
(0.0000°N, 0.0000°E)
Time: 19:31:37
(UTC+00:00)
Language:

STARLINK-3942 - Orbit

View from above orbital plane
View from above orbital plane
View from above satellite
View from above satellite

Ground track
Ground track

The orbit is defined by the following mean orbital elements,

1 52563U          26145.27394727 +.00000000 +00000-0 +28687-4 0 00008
2 52563  53.2138 150.3198 0001050  72.9966 287.1141 15.08841617    02
Epoch (UTC): 25 May 2026 06:34:29
Eccentricity: 0.0001050
inclination: 53.2138°
perigee height: 539 km
apogee height: 540 km
right ascension of ascending node: 150.3198°
argument of perigee: 72.9966°
revolutions per day: 15.08841617
mean anomaly at epoch: 287.1141°

The dashed part of the orbit path shows where the satellite is in the earth's shadow,  

DLR